UFO 11 (USA 174)

Last updated on June 27, 2019, 3:44 a.m. UTC

1 28117U 03057A   19177.08003094 -.00000096  00000-0  00000+0 0  9998
2 28117   5.7007  36.8742 0003908 343.2183 357.9832  1.00270638 56874
UTC
Height (km)
Latitude
Longitude
Inclination
Orbital Period
UTC large
Height (km)
Speed (km/s)
/
Latitude / Longitude
Inclination (degrees)
Orbital Period (minutes)
Azimuth
Elevation
Range (km)
Doppler Factor
iOS Compass Heading
iOS Angle

Next 30 passes for location: Hong Kong

Rise time Rise Azimuth (degrees) Set time Set Azimuth (degrees) Duration Max altitude (degrees)

No matching passes for this satellites